Regional Weather Roundup
Issued by NWS

Home | Current Version | Previous Version | Graphics & Text | Print | Product List | Glossary On
Versions: 1 2 3 4 5 6 7 8 9 10 11 12 13 14 15 16 17 18 19 20 21 22 23 24 25 26 27 28 29 30 31 32 33 34 35 36 37 38 39 40 41 42 43 44 45 46 47 48 49 50
000
ASUS45 KBOU 161807
RWRCO

WEATHER ROUNDUP FOR COLORADO
NATIONAL WEATHER SERVICE DENVER/BOULDER CO
1200 PM MDT TUE SEP 16 2014

NOTE: "FAIR" INDICATES FEW OR NO CLOUDS BELOW 12000 FEET WITH NO
SIGNIFICANT WEATHER AND/OR OBSTRUCTIONS TO VISIBILITY.

COZ001>005-013-030-031-161900-
...NORTHWEST COLORADO...

CITY           SKY/WX    TMP DP  RH WIND       PRES   REMARKS
CRAIG          SUNNY     75  40  28 CALM      30.27F
HAYDEN         SUNNY     73  34  23 CALM      30.29F
MEEKER         SUNNY     76  41  28 CALM      30.28F
MOUNT WERNER   NOT AVBL
STEAMBOAT SPGS SUNNY     69  40  34 CALM      30.32S
WALDEN         MOSUNNY   70  32  24 SW3       30.38F
$$

COZ006>008-011-161900-
...WEST CENTRAL VALLEYS...

CITY           SKY/WX    TMP DP  RH WIND       PRES   REMARKS
GRAND JUNCTION SUNNY     76  42  29 VRB5      30.20F
MONTROSE       SUNNY     78  45  30 NW6       30.27F
EAGLE          MOSUNNY   66  37  34 CALM      30.34F
RIFLE          SUNNY     72  43  35 VRB3      30.26F
DELTA          SUNNY     81  41  24 CALM      30.23F
NUCLA          SUNNY     75  43  31 CALM      30.31F
$$

COZ017>023-064>068-161900-
...SOUTHWEST COLORADO...

CITY           SKY/WX    TMP DP  RH WIND       PRES   REMARKS
DURANGO        SUNNY     73  49  42 W8        30.33F
CORTEZ         SUNNY     77  50  38 VRB3      30.28F
PAGOSA SPRINGS SUNNY     71  38  29 W5        30.38F
TELLURIDE      NOT AVBL
WOLF CREEK PAS CLOUDY    50  32  50 CALM      30.67F
$$

COZ009-010-012-014-032>034-037-058>063-161900-
...CENTRAL COLORADO...

CITY           SKY/WX    TMP DP  RH WIND       PRES   REMARKS
ASPEN          MOSUNNY   74  35  24 N10       30.38F
BUENA VISTA    SUNNY     70  33  25 CALM      30.39F
COPPER MTN     PTSUNNY   55  30  38 W20G26    30.68S
BERTHOUD PASS  PTSUNNY   46  45  93 W23G32    30.69F
COTTONWOOD PAS PTSUNNY   68  32  26 CALM      30.53F
GUNNISON       SUNNY     66  39  37 S3        30.43F
KREMMLING      MOSUNNY   66  36  32 E3        30.37F
LEADVILLE      MOSUNNY   63  29  27 W12       30.51F
MONARCH PASS   PTSUNNY   52  32  46 SW15G21   30.78F
SALIDA         SUNNY     73  39  29 N3        30.43F
SUNLIGHT       SUNNY     61  39  44 CALM      30.62S
WILKERSON PASS NOT AVBL
$$

COZ069>075-161900-
...SAN LUIS VALLEY/SANGRE DE CRISTO MOUNTAINS...

CITY           SKY/WX    TMP DP  RH WIND       PRES   REMARKS
ALAMOSA        SUNNY     68  44  42 CALM      30.39F
LA VETA PASS   NOT AVBL
SAGUACHE       SUNNY     68  45  42 S5        30.41F
$$

COZ035-036-038>040-161900-
...NORTHERN COLORADO FRONT RANGE...

CITY           SKY/WX    TMP DP  RH WIND       PRES   REMARKS
DENVER INTL AP MOSUNNY   84  33  16 N7        30.18F
DMNS CITY PARK   N/A     84  37  18 E5G13     30.17F
AURORA         MOSUNNY   82  34  18 NW6       30.21F
FRONT RANGE AP MOSUNNY   84  34  16 N7        30.19F
ERIE MUNI ARPT MOSUNNY   82  32  16 CALM      30.16S
BOULDER MUN AP MOSUNNY   82  37  20 E3        30.16F
CENTENNIAL     MOSUNNY   82  32  16 N7        30.22F
BROOMFIELD     NOT AVBL
FORT COLLINS   SUNNY     82  43  24 NE7       30.15F
LONGMONT       PTSUNNY   83  44  25 E3        30.16F
$$

COZ041-046-047-076>085-087-088-161900-
...PIKES PEAK/PALMER DIVIDE AND SOUTHERN FOOTHILLS...

CITY           SKY/WX    TMP DP  RH WIND       PRES   REMARKS
COLO. SPRINGS  MOSUNNY   83  30  14 NW9       30.25F
A. F. ACADEMY  SUNNY     78  32  19 VRB5      30.26F
ELLICOTT       NOT AVBL
FALCON         MOSUNNY   80  29  15 NW8       30.30F
FORT CARSON    MOSUNNY   84  35  16 E9        30.22F
LIMON          SUNNY     84  32  15 N17       30.18F
MONUMENT HILL  SUNNY     77  32  19 W10       30.30F
TRINIDAD       SUNNY     79  43  27 VRB5      30.23F
$$

COZ042>045-048>051-090-091-161900-
...NORTHEAST COLORADO...

CITY           SKY/WX    TMP DP  RH WIND       PRES   REMARKS
GREELEY ARPT   SUNNY     84  41  21 N14G20    30.13F
AKRON          SUNNY     79  46  31 W13       30.12F
BURLINGTON     SUNNY     77  53  43 SW10      30.12F
WRAY           SUNNY     80  54  39 SW8       30.07F
STERLING       SUNNY     82  59  44 CALM      30.07F
HOLYOKE        SUNNY     79  57  47 SW5       30.06F
FORT MORGAN    SUNNY     82  46  28 W9        30.11F
$$

COZ086-089-092>099-161900-
...SOUTHEAST COLORADO...

CITY           SKY/WX    TMP DP  RH WIND       PRES   REMARKS
PUEBLO         SUNNY     78  50  37 CALM      30.15F
LA JUNTA       SUNNY     73  54  51 SW3       30.14F
LAMAR          SUNNY     75  53  46 SW8       30.11F
SPRINGFIELD      N/A     78  56  46 SW12      30.15F
$$


USA.gov is the U.S. government's official web portal to all federal, state and local government web resources and services.